Pagina principale
METAR-TAF:

METAR-TAF

Aeroporti :

Montauk, New York, Stati Uniti

latitudine: 41-04-23N, longitudine: 071-55-24W, altezza: 2 m

Osservazione

Il bollettino è stato emesso 30 minuti fa, alle 22:54 UTC
Vento 15 kt da nord-ovest con raffiche fino a 26 kt
Temperature 0°C
Umidità 47%
Pressione 1018 hPa

METAR: KMTP 182254Z AUTO 31015G26KT 00/M10 A3006 RMK AO1 PK WND 31026/2249 SLP179 T00001100

Ora: 18:24 (23:24 UTC)


TAF: mancante

Osservazioni e previsioni meteorologiche di più di 4000 aeroporti (messaggi METAR e TAF).

Le stazioni disponibili sono rappresentate dai dischi gialli e rossi sulla carta.

Puntare il mouse per vedere il nome della stazione.

Clicca sopra per visualizzare le osservazioni e previsioni meteorologiche.

Per cambiare la mappa : fare clic sui pulsanti verdi con una croce nera per ingrandire, il pulsante verde con un trattino per diminuire, o sulla freccia verde per le mappe adiacenti.


METAR-TAF: